Wind_Speed
20 19 17 16 15 14 13 12 11 10 10 9 8 8 7 7 7 7 7 7 7 7 7 7 8 9 10 11 12 12 13 14 15 16 17 18 20 20 21 22 23 24 25
21 20 19 18 17 16 15 14 13 12 11 10 9 9 8 8 8 7 7 7 7 7 7 8 9 10 11 12 12 13 14 15 16 17 18 19 20 21 22 23 24 25 26
22 21 20 19 18 17 16 15 14 13 12 11 10 10 9 8 8 7 7 7 7 7 8 9 9 10 11 12 13 14 14 16 17 18 19 21 22 23 24 25 26 26 27
23 22 21 20 19 18 17 16 15 14 13 12 11 10 9 8 8 7 7 7 7 7 8 9 10 11 12 13 13 14 16 17 19 20 21 22 23 24 25 26 26 27 28
24 24 23 21 20 19 18 16 15 14 13 12 11 10 9 9 8 8 7 7 7 7 8 9 10 11 12 13 14 15 17 18 20 21 22 23 24 25 26 27 27 28 29
25 25 24 22 21 19 18 17 16 15 14 13 12 11 10 9 9 8 7 8 7 8 9 10 11 12 12 13 14 16 17 19 20 21 22 23 24 25 26 27 28 29 29
26 25 24 23 22 20 19 18 17 16 14 13 12 11 10 10 9 8 8 8 8 9 9 10 11 12 13 14 15 17 18 20 21 22 23 24 25 26 27 28 29 29 30
26 25 24 24 23 21 20 19 18 17 15 14 13 12 10 10 9 8 8 8 9 9 10 11 12 13 14 15 16 18 20 21 22 23 24 25 26 27 28 28 29 29 30
27 25 25 24 23 22 20 20 19 17 16 15 13 12 11 10 10 9 9 9 9 10 11 12 13 14 15 16 17 19 20 21 23 24 25 26 27 27 28 29 29 29 30
27 26 25 25 24 23 21 21 20 18 17 15 14 12 11 11 10 10 10 10 11 11 12 13 14 14 16 17 19 20 21 22 23 24 26 26 27 28 29 29 30 30 31
28 27 26 25 24 23 23 22 21 19 18 16 15 14 12 12 11 11 11 11 12 13 13 14 14 15 17 18 19 21 22 23 24 25 26 27 28 29 29 30 30 31 31
29 28 27 26 25 24 24 23 22 20 19 17 16 15 14 13 12 12 12 12 13 14 14 14 15 17 18 19 20 21 22 23 25 26 27 28 29 29 29 30 31 31 32
30 29 27 26 26 25 25 24 23 21 20 19 17 16 15 14 13 13 13 13 14 14 14 15 17 18 19 20 21 22 23 24 25 26 27 29 29 30 30 31 31 32 32
31 29 28 27 27 26 26 25 24 23 21 20 18 17 16 15 14 14 14 14 15 15 15 16 17 18 19 20 21 22 24 25 26 27 29 29 30 30 31 31 32 32 32
32 31 29 28 28 27 27 26 25 24 22 21 20 18 17 16 15 15 15 15 16 16 16 17 18 19 20 21 22 23 25 26 27 28 29 30 31 31 32 32 32 32 32
33 32 30 29 28 28 28 27 26 25 24 23 21 20 19 17 17 16 16 16 16 17 17 18 19 20 21 22 23 24 25 26 28 29 30 31 31 32 32 32 33 33 33
34 33 31 30 29 29 29 28 27 26 25 24 23 22 20 19 18 17 17 17 17 18 18 19 20 21 22 23 24 25 26 27 28 29 30 31 32 32 33 33 33 33 34
36 34 33 31 31 30 29 29 28 27 26 25 24 23 21 20 19 19 19 19 18 19 19 20 20 21 22 24 25 26 27 28 29 30 31 32 32 33 33 34 34 34 35
37 36 34 33 32 31 30 30 29 28 27 26 25 24 23 22 21 20 20 20 20 20 20 21 22 23 24 25 26 27 28 29 30 31 32 33 33 33 34 34 35 35 36
39 38 36 34 33 33 32 31 30 28 28 27 26 25 24 23 22 21 21 21 21 21 22 22 23 24 25 26 27 28 29 30 31 32 32 33 34 34 35 35 36 36 36
40 39 38 36 35 34 32 31 30 29 29 28 27 26 25 24 23 23 22 22 22 22 23 23 24 25 26 27 28 29 29 30 32 32 33 34 34 35 35 36 36 37 38
42 40 39 38 36 35 33 32 32 31 30 29 28 27 27 26 25 24 23 23 23 24 24 25 26 26 27 28 29 30 30 31 32 33 33 34 35 36 36 37 37 38 39
43 42 40 39 37 36 35 34 33 33 31 30 29 28 28 27 26 25 24 24 25 25 26 26 27 27 28 29 30 31 31 32 33 34 34 35 36 37 38 38 39 39 40
43 42 42 41 39 38 37 35 34 33 32 31 31 30 29 28 27 26 26 26 26 27 27 28 28 29 29 30 31 32 32 33 34 34 35 36 37 38 39 39 40 41 41
44 44 43 42 41 39 38 37 35 34 33 33 32 31 30 29 28 28 27 27 28 28 29 29 29 30 30 31 32 33 33 34 35 35 36 37 38 39 39 40 41 42 43
46 45 44 43 42 40 39 38 37 35 35 34 33 32 32 31 30 29 29 29 29 30 30 30 30 31 31 32 33 34 34 35 36 37 37 38 38 39 40 41 42 43 44
Wind_Direction
222 223 223 223 224 225 226 229 231 235 239 243 250 254 259 266 272 276 283 289 296 302 306 309 312 316 319 321 322 321 320 318 317 317 317 316 315 314 313 312 311 310 308
224 225 225 225 226 226 227 229 231 235 238 242 246 251 255 262 267 273 280 286 294 299 304 309 312 315 317 318 320 320 320 319 319 319 317 316 315 314 313 312 312 311 309
224 225 225 226 226 226 226 229 233 235 238 240 243 246 250 256 262 268 275 283 291 296 302 307 310 313 316 317 318 319 320 320 320 319 318 317 315 314 313 313 312 311 310
223 224 224 224 225 225 226 229 233 234 236 237 238 241 244 249 257 264 272 280 287 293 299 304 309 313 315 316 317 318 319 319 319 319 318 318 317 316 315 314 313 312 310
222 223 222 222 224 225 226 229 231 231 232 233 234 235 239 246 254 261 269 278 285 291 299 305 309 313 315 317 318 318 318 319 319 319 319 318 317 317 316 315 314 313 312
221 222 221 221 223 225 226 228 229 228 227 227 228 231 238 245 253 257 266 277 284 292 299 306 310 314 315 316 318 319 319 320 320 319 319 319 318 317 316 316 315 314 313
219 220 221 221 223 224 226 226 225 223 223 223 225 231 238 245 249 255 265 274 283 292 299 305 311 313 315 316 317 319 320 321 321 320 320 319 319 319 318 317 316 315 314
218 218 220 220 222 224 224 223 220 220 222 223 225 231 236 240 244 254 265 274 283 292 297 303 308 311 314 315 317 319 320 321 321 321 320 320 320 319 319 318 317 316 316
217 218 219 220 221 222 222 220 218 219 220 222 224 228 233 238 244 254 266 275 283 290 297 302 307 310 313 315 317 318 319 320 322 322 322 321 321 320 320 319 319 318 317
217 218 219 219 220 220 220 219 217 217 219 222 225 228 234 240 246 256 266 273 281 290 297 302 306 309 312 315 317 318 319 320 322 322 322 322 321 321 321 320 319 318 318
218 218 219 219 219 220 219 217 216 217 219 223 227 230 235 241 248 257 266 274 282 290 296 300 304 308 312 314 316 318 319 320 321 322 322 322 322 322 321 320 320 319 318
217 218 219 219 219 220 218 216 216 218 221 224 228 231 236 242 249 258 267 276 283 288 293 298 304 308 311 313 315 316 318 319 320 322 322 322 322 322 321 321 320 319 318
217 218 218 219 219 219 218 217 217 219 222 225 229 232 237 243 250 259 269 277 282 287 292 298 304 308 310 312 314 315 317 319 320 321 321 322 322 321 321 321 320 319 319
216 217 217 218 219 218 218 218 219 220 223 226 229 234 239 245 252 260 270 277 282 287 291 298 304 307 310 312 313 315 317 319 319 320 320 321 321 321 321 320 320 319 319
215 216 217 218 218 218 218 219 219 221 224 226 231 235 241 246 253 260 269 276 282 286 291 297 302 306 309 311 313 315 316 318 318 319 319 320 320 320 320 319 319 319 318
216 216 217 218 219 219 218 219 220 222 225 228 232 237 242 248 254 261 268 277 283 286 291 295 300 304 308 311 312 314 315 316 317 318 319 319 319 319 318 318 318 318 317
215 216 217 219 220 219 219 219 221 223 226 229 233 238 243 249 254 262 269 277 281 285 290 294 299 303 306 310 311 312 313 315 316 317 318 318 318 318 318 317 317 317 316
215 216 217 219 220 220 220 221 222 225 228 231 235 239 244 248 254 262 269 276 279 284 289 293 297 301 305 308 309 311 312 313 315 316 316 317 317 317 317 317 317 316 316
216 216 217 218 219 220 221 222 223 226 230 233 236 240 244 248 255 262 269 273 278 283 288 292 296 300 303 306 307 309 311 312 314 314 315 316 316 316 316 316 316 316 315
217 217 217 218 219 220 221 223 224 228 232 236 238 241 244 250 256 262 267 272 277 282 287 291 295 299 302 304 306 308 309 311 313 314 314 314 314 315 315 315 315 315 315
218 218 218 218 220 221 223 225 227 230 234 236 238 242 246 252 256 261 266 271 276 281 286 290 294 298 301 303 305 306 308 309 311 312 312 313 313 314 314 314 314 314 314
219 219 219 220 221 223 224 227 229 231 233 236 239 243 247 252 256 260 265 270 274 280 284 288 293 296 300 302 304 306 307 308 310 311 311 312 312 313 313 313 313 313 313
220 220 220 221 223 224 226 228 230 232 234 237 241 244 248 252 256 261 264 269 274 279 283 287 291 295 298 301 303 304 306 307 309 310 310 311 311 312 312 312 311 311 311
220 221 222 223 224 226 228 230 232 234 236 239 242 245 248 252 257 261 265 269 274 278 282 286 290 294 296 299 301 303 304 306 308 309 310 310 311 311 311 311 310 310 311
222 222 223 224 225 227 230 232 233 235 237 240 243 246 249 252 256 261 265 269 273 277 281 285 290 293 295 298 300 301 302 304 306 308 309 309 309 309 310 310 309 309 309
223 223 224 225 227 228 231 233 234 236 238 241 244 247 249 252 256 260 264 268 273 277 281 285 288 291 294 296 299 300 301 303 305 306 307 308 307 308 309 309 309 308 309
Height
5866 5868 5870 5871 5873 5874 5876 5877 5877 5878 5879 5880 5880 5881 5881 5882 5882 5882 5882 5882 5882 5881 5881 5880 5879 5879 5878 5877 5876 5875 5873 5872 5870 5869 5867 5865 5863 5861 5859 5857 5855 5853 5851
5864 5866 5867 5869 5871 5872 5874 5875 5876 5877 5878 5878 5879 5880 5880 5881 5881 5881 5881 5881 5880 5880 5879 5879 5878 5877 5877 5876 5875 5873 5872 5870 5868 5867 5865 5863 5861 5859 5856 5854 5852 5849 5847
5861 5863 5865 5866 5868 5870 5872 5873 5874 5875 5876 5877 5878 5878 5879 5879 5880 5880 5880 5880 5879 5879 5878 5877 5877 5876 5875 5874 5873 5871 5870 5868 5866 5864 5862 5860 5858 5856 5853 5851 5848 5845 5843
5857 5859 5862 5864 5866 5867 5869 5871 5872 5873 5874 5875 5876 5877 5877 5878 5878 5879 5878 5878 5878 5877 5877 5876 5875 5875 5873 5872 5871 5869 5868 5866 5864 5862 5859 5857 5855 5852 5849 5847 5844 5841 5838
5854 5856 5858 5861 5863 5865 5867 5868 5870 5871 5872 5873 5874 5875 5876 5876 5877 5877 5877 5877 5876 5876 5875 5874 5874 5873 5872 5870 5869 5867 5865 5863 5861 5859 5856 5854 5851 5848 5846 5843 5840 5837 5834
5850 5852 5855 5857 5859 5862 5864 5866 5867 5869 5870 5871 5872 5873 5874 5875 5875 5875 5875 5875 5875 5874 5873 5873 5872 5871 5870 5868 5867 5865 5863 5861 5858 5856 5853 5851 5848 5845 5842 5839 5836 5833 5830
5845 5848 5851 5853 5856 5858 5861 5863 5864 5866 5868 5869 5870 5871 5872 5873 5873 5874 5874 5873 5873 5872 5872 5871 5870 5869 5868 5866 5864 5862 5860 5858 5855 5853 5850 5847 5845 5842 5838 5835 5832 5829 5825
5841 5844 5847 5850 5852 5855 5857 5860 5862 5864 5865 5867 5868 5869 5870 5871 5871 5872 5872 5871 5871 5870 5870 5869 5868 5867 5865 5863 5862 5859 5857 5855 5852 5850 5847 5844 5841 5838 5834 5831 5828 5824 5821
5837 5840 5843 5846 5849 5851 5854 5856 5859 5861 5863 5864 5866 5867 5868 5868 5869 5869 5869 5869 5869 5868 5867 5866 5865 5864 5863 5861 5859 5857 5854 5852 5849 5846 5843 5840 5837 5834 5830 5827 5823 5820 5816
5832 5836 5839 5842 5845 5848 5850 5853 5856 5858 5860 5862 5863 5864 5865 5866 5867 5867 5867 5867 5866 5866 5865 5864 5863 5861 5860 5858 5856 5853 5851 5848 5846 5843 5840 5837 5833 5830 5826 5823 5819 5815 5811
5828 5831 5835 5838 5841 5844 5847 5850 5852 5855 5857 5859 5860 5862 5863 5864 5864 5865 5865 5864 5864 5863 5862 5861 5860 5858 5857 5855 5853 5850 5848 5845 5842 5839 5836 5832 5829 5826 5822 5818 5814 5811 5807
5824 5827 5831 5834 5837 5840 5843 5846 5849 5851 5854 5856 5857 5859 5860 5861 5861 5862 5862 5862 5861 5860 5859 5858 5857 5855 5854 5851 5849 5847 5844 5841 5838 5835 5832 5828 5825 5821 5818 5814 5810 5806 5802
5818 5822 5826 5829 5833 5836 5839 5842 5845 5848 5850 5852 5854 5855 5857 5858 5858 5859 5859 5858 5858 5857 5856 5855 5854 5852 5850 5848 5846 5843 5840 5838 5834 5831 5828 5824 5821 5817 5813 5809 5805 5801 5797
5813 5817 5821 5825 5828 5832 5835 5838 5841 5844 5847 5849 5851 5852 5853 5854 5855 5855 5855 5855 5855 5854 5853 5852 5850 5849 5847 5844 5842 5839 5837 5834 5830 5827 5824 5820 5816 5813 5809 5804 5800 5796 5792
5808 5812 5816 5820 5823 5827 5830 5834 5837 5840 5843 5845 5847 5848 5850 5851 5851 5852 5852 5851 5851 5850 5849 5848 5846 5845 5843 5840 5838 5835 5832 5829 5826 5823 5819 5816 5812 5808 5804 5800 5796 5791 5787
5803 5807 5811 5815 5819 5822 5826 5829 5833 5836 5838 5841 5843 5844 5846 5847 5847 5848 5848 5847 5847 5846 5845 5844 5843 5841 5839 5836 5834 5831 5828 5825 5822 5818 5815 5811 5807 5803 5799 5795 5790 5786 5782
5797 5801 5806 5809 5813 5817 5821 5824 5828 5831 5834 5836 5838 5840 5842 5843 5843 5844 5844 5844 5843 5842 5841 5840 5838 5837 5835 5832 5830 5827 5824 5821 5817 5814 5810 5806 5802 5798 5794 5789 5785 5781 5777
5791 5796 5800 5804 5808 5812 5816 5819 5823 5826 5829 5832 5834 5835 5837 5838 5839 5839 5839 5839 5839 5838 5837 5836 5834 5832 5830 5828 5825 5822 5819 5816 5813 5809 5805 5801 5797 5793 5788 5784 5780 5775 5771
5784 5789 5794 5799 5803 5807 5810 5814 5818 5821 5824 5826 5829 5831 5832 5833 5834 5835 5835 5835 5834 5833 5832 5831 5829 5828 5826 5823 5821 5818 5814 5811 5807 5804 5800 5796 5791 5787 5783 5778 5774 5769 5765
5777 5782 5788 5792 5797 5801 5805 5809 5812 5816 5819 5821 5824 5825 5827 5828 5829 5830 5830 5830 5829 5829 5828 5826 5825 5823 5821 5818 5816 5813 5809 5806 5802 5798 5794 5790 5785 5781 5776 5772 5768 5763 5758
5769 5776 5781 5786 5791 5795 5799 5803 5807 5810 5813 5816 5818 5820 5822 5823 5824 5825 5825 5825 5824 5824 5823 5821 5820 5818 5816 5813 5810 5807 5804 5800 5797 5793 5788 5784 5780 5775 5770 5766 5761 5757 5752
5762 5769 5774 5780 5784 5789 5794 5797 5801 5804 5807 5809 5812 5814 5816 5817 5818 5819 5819 5819 5819 5818 5817 5816 5814 5812 5810 5808 5805 5802 5799 5796 5791 5787 5783 5778 5774 5769 5764 5759 5755 5750 5745
5755 5761 5767 5773 5778 5782 5787 5790 5794 5797 5800 5804 5806 5808 5810 5811 5813 5813 5814 5813 5813 5812 5811 5810 5808 5807 5804 5802 5799 5796 5793 5789 5785 5781 5777 5772 5767 5762 5758 5753 5748 5742 5737
5748 5754 5760 5765 5770 5775 5779 5783 5787 5791 5795 5798 5800 5802 5804 5805 5806 5807 5807 5807 5807 5806 5805 5804 5802 5800 5798 5796 5793 5789 5786 5783 5779 5775 5771 5766 5761 5756 5751 5746 5740 5735 5729
5740 5746 5752 5757 5762 5767 5772 5776 5781 5785 5788 5790 5793 5795 5797 5799 5800 5801 5801 5801 5800 5800 5799 5797 5796 5794 5792 5789 5786 5783 5780 5776 5772 5768 5764 5759 5754 5748 5743 5738 5732 5727 5722
5731 5737 5743 5748 5754 5759 5764 5769 5773 5777 5780 5783 5786 5788 5790 5792 5793 5794 5794 5794 5794 5793 5792 5791 5789 5787 5785 5782 5779 5776 5773 5769 5765 5761 5757 5752 5747 5742 5736 5730 5725 5719 5713